Other Public Products
Issued by NWS Grand Forks, ND

Home | Current Version | Previous Version | Text Only | Print | Product List | Glossary On
Versions: 1 2 3 4 5 6 7 8 9 10 11 12 13 14 15 16 17 18 19 20 21 22 23 24 25 26 27 28 29 30 31 32 33 34 35 36 37 38 39 40 41 42 43 44 45 46 47 48 49 50
000
FPUS83 KFGF 251431
OPUFGF
PRAIRIE TO PINES WEATHER ROUNDUP
NATIONAL WEATHER SERVICE EASTERN NORTH DAKOTA/GRAND FORKS ND
900 AM CDT SAT OCT 25 2014

 **SATELLITE DATA USED TO AUGMENT SKY COVER AT AUTOMATED STATIONS**
 *****  WEATHER ACROSS EASTERN NORTH DAKOTA  *****

CITY           SKY/WX    TMP DP  RH WIND       PRES   REMARKS
GRAND FORKS    PTCLDY    42  32  67 W9        30.05R
GRAND FORKS AF CLEAR     43  32  64 NW9       30.06R
GRAND CITY NWS   N/A     43 N/A N/A W14         N/A
BUXTON           N/A     41  37  85 W13         N/A
DEVILS LAKE    CLEAR     41  30  65 W12       30.07R
FARGO          CLEAR     43  32  65 W12       30.08R
WAHPETON ARPT  MOSUNNY   43  32  65 W7        30.11R
$$

 *****  WEATHER ACROSS CENTRAL AND WESTERN NORTH DAKOTA  *****

CITY           SKY/WX    TMP DP  RH WIND       PRES   REMARKS
JAMESTOWN      CLOUDY    42  34  73 W8        30.12R
BISMARCK       MOCLDY    41  32  70 CALM      30.16R
MINOT          CLEAR     36  29  75 SW10      30.11R
MINOT AFB      CLEAR     35  31  85 W8        30.10R
GARRISON         N/A     38  32  79 CALM      30.13R
WILLISTON      CLOUDY    38  31  76 CALM      30.13R
DICKINSON      PTCLDY    38  28  67 SW5       30.13R
HETTINGER      CLEAR     32  27  81 CALM      30.16S
$$

 *****  OTHER OBSERVATIONS NORTHEAST NORTH DAKOTA  *****

CITY           SKY/WX    TMP DP  RH WIND       PRES   REMARKS
WALHALLA         N/A     43  30  61 W12       30.03S
LANGDON        FAIR      34  27  75 W9        30.05R
CAVALIER       FAIR      45  30  57 W15       30.03R
GRAFTON        FAIR      41  32  70 W12       30.04R
CANDO          FAIR      36  32  87 W10       30.10R
FORT TOTTEN    NOT AVBL
ROLLA          FAIR      45  25  45 W7        30.09R
RUGBY          FAIR      32  32 100 W5        30.11S
 ***** THE ABOVE OBSERVATIONS ARE NON NWS ARE NOT QUALITY
        CONTROLLED AND MAY MIS-REPORT RAIN FOR SNOW...
$$

 *****  OTHER OBSERVATIONS SOUTHEAST NORTH DAKOTA *****

CITY           SKY/WX    TMP DP  RH WIND       PRES   REMARKS
COOPERSTOWN    NOT AVBL
VALLEY CITY    PTSUNNY   41  36  81 W12       30.12R
OAKES            N/A     46  37  71 W8        30.13S
GWINNER        MOSUNNY   48  32  53 W8        30.13R
SHEYENNE NWR     N/A     44  35  71 W7        29.95S
BUFFALO          N/A     44  33  65 W10         N/A
WYNDMERE         N/A     45  36  70 NW7         N/A
 ***** THE ABOVE OBSERVATIONS ARE NON NWS ARE NOT QUALITY
       CONTROLLED AND MAY MIS-REPORT RAIN FOR SNOW...
$$

  *****  WEATHER ACROSS NORTHERN MINNESOTA  *****

CITY           SKY/WX    TMP DP  RH WIND       PRES   REMARKS
FLAG ISLAND    CLEAR     43  32  65 W21G26    29.89S
WARROAD        CLEAR     39  34  81 W14       29.95R
ROSEAU         CLEAR     43  34  70 W12G18    29.97R
HALLOCK        CLEAR     41  32  70 W12       30.01R
THF RVR FALLS  CLEAR     43  30  61 W14       30.02R
HALSTAD          N/A     44  34  68 NW12        N/A
FOSSTON        CLEAR     43  34  70 W9        30.03R
BAUDETTE       CLEAR     43  31  62 VRB7      29.92R
WASKISH        FAIR      45  36  70 W18       29.96R
CROOKSTON      CLEAR     43  34  70 W15       30.06R
$$
  *****  WEATHER ACROSS CENTRAL AND WEST MINNESOTA  *****

CITY           SKY/WX    TMP DP  RH WIND       PRES   REMARKS
BEMIDJI        CLEAR     44  32  61 W13G18    29.99R
PARK RAPIDS    CLEAR     41  33  73 W7        30.01R
WADENA         CLEAR     45  36  70 W9        30.05R
DETROIT LAKES  CLEAR     45  34  65 NW14G21   30.06R
MOORHEAD       CLEAR     46  34  61 NW9       30.08S
FERGUS FALLS   PTCLDY    39  30  70 W3        30.11R
ELBOW LAKE     FAIR      42  34  71 W7        30.10R
MORRIS MN      CLOUDY    48  37  66 NW9       30.09R
STAPLES        SUNNY     45  34  65 W9        30.04R
WHEATON        CLOUDY    46  36  66 W9        30.14R
$$
  *****  WEATHER ELSEWHERE ACROSS MINNESOTA  *****

CITY           SKY/WX    TMP DP  RH WIND       PRES   REMARKS
DULUTH         SUNNY     47  31  53 NW16      29.90R
INTRNTL FALLS  CLEAR     42  31  64 W9        29.88R
ELY            SUNNY     45  32  61 W15G21    29.85R
CLOQUET        SUNNY     48  30  49 W14G23    29.94R
BRAINERD       SUNNY     46  33  60 W8        30.02R
HIBBING        SUNNY     47  30  51 W9        29.91R
ALEXANDRIA     SUNNY     45  34  65 NW8       30.08R
SAINT CLOUD    SUNNY     51  34  52 NW13      30.03R
MINNEAPOLIS    MOSUNNY   53  34  48 NW10      30.03R
$$

  *****  WEATHER ACROSS SOUTH DAKOTA  *****

CITY           SKY/WX    TMP DP  RH WIND       PRES   REMARKS
SIOUX FALLS    MOSUNNY   47  42  83 W3        30.13R
BROOKINGS      NOT AVBL
WATERTOWN      CLEAR     47  39  74 NW6       30.12R
HURON          CLEAR     44  37  76 NW5       30.14R
SISSETON         N/A     51  34  52 NW10      30.11R
ABERDEEN       CLEAR     43  34  70 CALM      30.15R
MITCHELL       CLEAR     44  39  82 W3        30.16R
PIERRE         CLEAR     42  36  79 SW6       30.15R
MOBRIDGE       CLEAR     44  34  67 N6        30.14R
RAPID CITY     PTCLDY    40  30  67 W3        30.17R
$$

  *****  SOME WEATHER IN NEARBY STATES *****

CITY           SKY/WX    TMP DP  RH WIND       PRES   REMARKS
GLASGOW MT     MOCLDY    37  30  75 E9        30.07F
GREAT FALLS MT PTCLDY    37  35  92 CALM      29.96F
CHEYENNE WY    CLEAR     41  23  48 W10       30.25F
SCOTTSBLUFF NE CLEAR     39  32  76 N5        30.19R
OMAHA NE       MOSUNNY   50  46  86 N6        30.12R
DES MOINES IA  SUNNY     55  46  71 NW5       30.08R
DAVENPORT IA   MOSUNNY   52  50  93 NW7       30.01R FOG
CHICAGO IL     MOSUNNY   59  54  83 W9        29.92R FOG
EAU CLAIRE WI  SUNNY     51  39  63 W8        29.96R
LA CROSSE WI   SUNNY     51  50  96 CALM      29.99R
$$

  *****  SOME NATIONAL WEATHER *****

CITY           SKY/WX    TMP DP  RH WIND       PRES   REMARKS
LA GUARDIA NY  MOSUNNY   55  39  54 W10       29.85S
RALEIGH NC     SUNNY     54  44  69 CALM      30.03S
ATLANTA GA     SUNNY     56  44  64 NW7       30.08R
NEW ORLEANS LA MOSUNNY   68  54  60 NE9       30.15R
OKLAHOMA CITY  SUNNY     63  59  87 S7        30.08R
ALBUQUERQUE NM CLEAR     50  27  40 N5        30.31R
SALT LAKE CITY CLEAR     58  29  33 SE12      30.07S
LOS ANGELES CA MOCLDY    65  61  87 CALM      30.01R
BOISE ID       PTCLDY    43  42  97 SE7       29.83F FOG
SEATTLE WA     CLOUDY    49  46  90 N5        29.48S
$$

*** WEATHER ACROSS MANITOBA...SASKATCHEWAN AND ONTARIO ***
                ***ONTARIO***

CITY           SKY/WX    TMP DP  RH WIND       PRES   REMARKS
GERALDTON      PTSUNNY   45  37  76 NW17      29.48S
THUNDER BAY    MOSUNNY   52  34  50 W16G30    29.66F
SIOUX LOOKOUT  CLOUDY    45  32  61 NW18G28   29.70S
TORONTO        PTSUNNY   57  48  72 SW12G20   29.71F
BIG TROUT LK   LGT RAIN  39  37  93 NW20G32   29.39R
PICKLE LAKE    CLOUDY    41  30  65 W28G41    29.52R
DRYDEN         CLEAR     45  32  61 W18G29    29.75S
KENORA         PTCLDY    43  32  65 W16G23    29.85R
$$
                *** MANITOBA***

CITY           SKY/WX    TMP DP  RH WIND       PRES   REMARKS
BRANDON        PTCLDY    32  28  86 W9        30.04R WCI  24
DAUPHIN        CLEAR     37  30  75 W15       29.96S
ISLAND LAKE    MOCLDY    37  32  81 W21G31    29.65R
PILOT MOUND      N/A     37  28  70 W8          N/A
THE PAS        CLOUDY    37  28  70 W16G25    29.85R
THOMPSON       FLURRIES  34  30  86 W13G22    29.67R WCI  25
WINNIPEG       PTCLDY    39  30  70 W16G23    29.97R
LYNN LAKE      FLURRIES  32  27  80 NW13G21   29.70R WCI  22
CHURCHILL      LGT RAIN  37  37 100 NW10      29.41R FOG
GILLAM         CLOUDY    37  36  93 W21G29    29.51R
$$
                ***SASKATCHEWAN***

CITY           SKY/WX    TMP DP  RH WIND       PRES   REMARKS
ESTEVAN        PTCLDY    30  28  93 SW6       30.11R WCI  24
KINDERSLEY     PTCLDY    27  23  86 CALM      30.04F
LLOYDMINSTER   PTCLDY    25  21  86 W8        30.00F WCI  16
PRINCE ALBERT  PTCLDY    32  27  80 W8        29.98R WCI  25
REGINA         PTCLDY    27  25  93 S2        30.07F



USA.gov is the U.S. government's official web portal to all federal, state and local government web resources and services.